User: anonymous   Login
Location: Charleston
(38.3500°N, 81.6330°W)
Time: 08:49:52
(UTC-05:00)
Language:

Cosmos 2228 - Orbit

View from above orbital plane
View from above orbital plane
View from above satellite
View from above satellite

Ground track
Ground track

The orbit data is extracted from the following two-line orbital elements,

1 22286U 92094A   16039.29760100  .00000887  00000-0  95320-4 0  9994
2 22286  82.5225 120.5990 0019717 327.5146  32.4856 14.87330004248928
Epoch (UTC): 08 February 2016 07:08:32
Eccentricity: 0.0019717
inclination: 82.5225°
perigee height: 592 km
apogee height: 620 km
right ascension of ascending node: 120.5990°
argument of perigee: 327.5146°
revolutions per day: 14.87330004
mean anomaly at epoch: 32.4856°
orbit number at epoch: 24892

The dashed part of the orbit path shows where the satellite is in the earth's shadow,  

DLR